SL-4 R/B (43658 NORAD) Tracking and Keplerian Element Data

This shows tracking and keplerian element data for the satellite.

Feedback or suggestion? Click here.




ElementValue
Catalog43658
NameSL-4 R/B
Epoch Orbit452
Epoch Day328.07774105
Epoch Year2018
RAAN296.6206
Inclination67.1349
Eccentricity0.0456953
Argument of Perigee64.2893
Mean Anonmoly300.4682
Mean Motion15.04276959
Decay Rate0.00037201
L11 43658U 18082B 18328.07774105 .00037201 47472-5 19978-3 0 9997
L22 43658 67.1349 296.6206 0456953 64.2893 300.4682 15.04276959 4525

Live tracking and technical data element details for SL-4 R/B (NORAD 43658). SL-4 R/B can be tracked NOW for your location showing map with azimuth and elevation plus other details from your city location.

Track the satellite on the map from your city or location and see movement details for azimuth, elevation, latitude, longitude, range, height, and movement on the map or in text.







IsCatalogInMostPopularTable: catalog: 43658, numindb: 85
Update: records affected: 1



GetName: 43658 SL-4 R/B

Hit Count: updated at: Tue, 23 Apr 2019 20:25:49 GMT